Location: Teegooga Bore
(23.0333°S, 115.5667°E)
Time: 02:25:28
(UTC+00:00)

Daily predictions for brighter satellites

Satellite Brightness Start Highest point End
(mag) Time Altitude Azimuth Time Altitude Azimuth Time Altitude Azimuth
Stardust Del rocket 2.4 11:13:34 10° WNW 11:15:56 63° N 11:19:09 10° E
SeaSat 1 4.2 11:15:48 10° E 11:17:03 11° ENE 11:18:18 10° ENE
ATLAS 5 CENTAUR R/B 3.1 11:11:54 10° NNW 11:18:35 73° WSW 11:25:43 10° SSE
Cosmos 2322 4.3 11:14:07 10° NNW 11:19:46 65° WSW 11:25:28 10° S
CZ-2D R/B 3.5 11:16:43 10° SSE 11:20:27 47° E 11:24:09 10° N
Cosmos 1455 Rocket 3.4 11:19:37 10° N 11:23:58 71° W 11:28:23 10° S
Lacrosse 4 Rocket 2.4 11:20:53 10° S 11:24:22 27° ESE 11:27:46 10° ENE
Cosmos 405 Rocket 3.3 11:22:58 10° SSW 11:25:57 45° W 11:28:51 10° N
Meteor 1-27 4.4 11:23:30 10° N 11:29:19 89° W 11:35:09 10° S
Hubble Space Telescope 1.8 11:26:19 10° WSW 11:29:50 35° S 11:33:21 10° ESE
PSLV R/B 3.7 11:27:00 10° SSE 11:31:03 45° E 11:35:01 10° N
CARTOSAT-1 3.6 11:27:25 10° SSE 11:31:34 52° E 11:35:39 10° N
Cosmos 2285 Rocket 4.0 11:25:52 10° N 11:32:10 80° ENE 11:38:31 10° SSE
Resurs 1-3 3.9 11:29:55 10° S 11:34:15 71° WSW 11:38:31 10° NNW
COBE Rocket 3.9 11:32:30 10° N 11:37:06 78° W 11:41:48 10° SSW
Cosmos 1072 Rocket 4.4 11:31:35 10° N 11:37:40 82° E 11:43:51 10° S
Cosmos 2034 Rocket 4.3 11:31:58 10° NNE 11:37:53 45° E 11:43:54 10° SSE
Cosmos 1461 4.3 11:37:34 10° SW 11:40:52 33° WNW 11:44:12 10° N
Meteor 2-3 Rocket 4.0 11:35:28 10° SSW 11:41:04 73° W 11:46:39 10° N
SKYMED 3 4.3 11:42:41 10° NNE 11:46:38 68° ESE 11:50:37 10° S
Cosmos 1743 3.6 11:51:06 10° SSE 11:53:15 21° ESE 11:53:15 21° ESE
Cosmos 2150 Rocket 4.1 11:49:40 10° N 11:54:40 52° ENE 11:59:48 10° SSE
